KC3UTO Weather Reports


time (UTC)temp
C
wind
direction
speed
KPH
gust
KPH
rain 1hr
cm
rain 24hr
cm
rain mn
cm
humidity
%
barometer
mb
20260505201309 27 167 6.4 14.5 0.00 0.00 0.00 31 1007.5
20260505200807 27 120 3.2 19.3 0.00 0.00 0.00 32 1007.4
20260505200303 27 237 9.7 17.7 0.00 0.00 0.00 32 1007.4
20260505195758 27 228 14.5 17.7 0.00 0.00 0.00 33 1007.2
20260505195257 27 236 4.8 24.1 0.00 0.00 0.00 32 1007.3
20260505194753 27 180 3.2 17.7 0.00 0.00 0.00 30 1007.4
20260505194250 27 216 11.3 16.1 0.00 0.00 0.00 30 1007.3
20260505193746 27 251 6.4 20.9 0.00 0.00 0.00 31 1007.3
20260505193244 27 226 17.7 24.1 0.00 0.00 0.00 29 1007.4
20260505192742 27 239 12.9 14.5 0.00 0.00 0.00 30 1007.4
20260505192239 27 262 1.6 12.9 0.00 0.00 0.00 31 1007.5
20260505191737 27 252 6.4 29.0 0.00 0.00 0.00 30 1007.4
20260505191235 27 186 6.4 17.7 0.00 0.00 0.00 30 1007.6
20260505190731 27 206 4.8 14.5 0.00 0.00 0.00 30 1007.5
20260505190231 28 231 4.8 17.7 0.00 0.00 0.00 29 1007.5
20260505185728 28 331 1.6 22.5 0.00 0.00 0.00 30 1007.7
20260505185225 27 213 3.2 19.3 0.00 0.00 0.00 30 1007.9
20260505184720 28 254 14.5 19.3 0.00 0.00 0.00 29 1007.5
20260505184218 28 67 3.2 24.1 0.00 0.00 0.00 31 1007.9
20260505183715 28 250 9.7 19.3 0.00 0.00 0.00 30 1008.0
20260505183213 27 324 4.8 22.5 0.00 0.00 0.00 29 1007.7
20260505182708 28 200 4.8 24.1 0.00 0.00 0.00 29 1007.8
20260505182206 28 151 6.4 30.6 0.00 0.00 0.00 30 1007.9
20260505181702 28 243 11.3 16.1 0.00 0.00 0.00 29 1007.8
20260505181200 28 166 6.4 14.5 0.00 0.00 0.00 30 1007.9
20260505180655 28 233 14.5 20.9 0.00 0.00 0.00 29 1008.0
20260505180153 28 235 17.7 19.3 0.00 0.00 0.00 29 1008.1
20260505175648 28 235 8.0 12.9 0.00 0.00 0.00 29 1008.0
20260505175145 28 229 1.6 11.3 0.00 0.00 0.00 28 1008.1
20260505174642 28 192 3.2 8.0 0.00 0.00 0.00 31 1008.2
20260505174138 27 213 3.2 22.5 0.00 0.00 0.00 29 1008.3
20260505173635 27 269 11.3 25.7 0.00 0.00 0.00 27 1008.5
20260505173132 27 253 8.0 11.3 0.00 0.00 0.00 31 1008.2
20260505172629 28 196 12.9 29.0 0.00 0.00 0.00 28 1008.4
20260505172126 28 53 4.8 6.4 0.00 0.00 0.00 33 1008.4
20260505171620 27 138 6.4 25.7 0.00 0.00 0.00 31 1008.3
20260505171118 27 286 4.8 12.9 0.00 0.00 0.00 33 1008.4
20260505170615 27 228 4.8 6.4 0.00 0.00 0.00 34 1008.5
20260505170111 27 218 9.7 20.9 0.00 0.00 0.00 33 1008.5
20260505165606 27 268 6.4 17.7 0.00 0.00 0.00 34 1008.6
20260505165102 27 259 4.8 19.3 0.00 0.00 0.00 35 1008.8
20260505164558 27 276 9.7 12.9 0.00 0.00 0.00 34 1008.8
20260505164056 27 308 1.6 9.7 0.00 0.00 0.00 36 1008.7
20260505163554 26 236 3.2 11.3 0.00 0.00 0.00 34 1009.1
20260505163051 26 251 8.0 16.1 0.00 0.00 0.00 34 1009.3
20260505162549 26 231 19.3 20.9 0.00 0.00 0.00 35 1009.3
20260505162047 26 231 6.4 9.7 0.00 0.00 0.00 36 1009.1
20260505161543 26 241 8.0 14.5 0.00 0.00 0.00 37 1009.0
20260505161041 26 321 4.8 14.5 0.00 0.00 0.00 37 1009.3
20260505160538 26 277 6.4 14.5 0.00 0.00 0.00 36 1009.3
20260505153015 26 297 9.7 9.7 0.00 0.00 0.00 38 1009.5
20260505152512 25 282 6.4 8.0 0.00 0.00 0.00 38 1009.5
20260505152008 25 144 6.4 8.0 0.00 0.00 0.00 37 1009.7
20260505151503 25 269 4.8 6.4 0.00 0.00 0.00 38 1009.5
20260505151000 25 237 3.2 8.0 0.00 0.00 0.00 39 1009.6
20260505150457 25 242 9.7 12.9 0.00 0.00 0.00 37 1009.6
20260505140427 22 230 8.0 9.7 0.00 0.00 0.00 43 1010.3
20260505124840 20 57 3.2 4.8 0.00 0.00 0.00 56 1010.6
20260505124337 20 65 3.2 4.8 0.00 0.00 0.00 56 1010.7
20260505123833 20 202 0.0 4.8 0.00 0.00 0.00 54 1010.5
20260505123330 19 50 3.2 3.2 0.00 0.00 0.00 58 1010.6
20260505122826 18 43 0.0 3.2 0.00 0.00 0.00 58 1010.4
20260505122324 18 14 3.2 3.2 0.00 0.00 0.00 60 1010.5
20260505121820 18 13 3.2 4.8 0.00 0.00 0.00 62 1010.5
20260505121317 17 17 0.0 3.2 0.00 0.00 0.00 63 1010.5
20260505120813 17 55 4.8 4.8 0.00 0.00 0.00 65 1010.4
20260505120309 17 29 1.6 3.2 0.00 0.00 0.00 66 1010.4
20260505115808 16 341 0.0 3.2 0.00 0.00 0.00 69 1010.1
20260505115306 15 52 3.2 4.8 0.00 0.00 0.00 73 1010.3
20260505114803 14 31 3.2 3.2 0.00 0.00 0.00 77 1010.4
20260505114300 13 273 1.6 1.6 0.00 0.00 0.00 79 1010.3
20260505113756 13 28 0.0 3.2 0.00 0.00 0.00 80 1010.2
20260505113252 12 50 0.0 1.6 0.00 0.00 0.00 81 1010.1
20260505112748 12 44 0.0 1.6 0.00 0.00 0.00 82 1010.1
20260505112246 12 34 1.6 3.2 0.00 0.00 0.00 84 1010.1
20260505111747 11 30 3.2 3.2 0.00 0.00 0.00 85 1010.2
20260505111243 11 44 3.2 4.8 0.00 0.00 0.00 86 1010.1
20260505110739 11 36 3.2 3.2 0.00 0.00 0.00 86 1010.2
20260505110237 10 41 3.2 3.2 0.00 0.00 0.00 87 1009.9
20260505102212 9 61 3.2 4.8 0.00 0.00 0.00 90 1010.0
20260505101711 9 66 3.2 3.2 0.00 0.00 0.00 89 1009.6
20260505101206 10 35 3.2 4.8 0.00 0.00 0.00 89 1009.8
20260505100703 10 48 4.8 4.8 0.00 0.00 0.00 89 1009.6
20260505100200 10 53 3.2 4.8 0.00 0.00 0.00 88 1009.5
20260505095655 10 32 1.6 3.2 0.00 0.00 0.00 88 1009.6
20260505095153 10 44 1.6 1.6 0.00 0.00 0.00 88 1009.4
20260505094649 10 356 1.6 3.2 0.00 0.00 0.00 88 1009.6
20260505094145 11 49 0.0 3.2 0.00 0.00 0.00 87 1009.6
20260505093642 11 26 4.8 4.8 0.00 0.00 0.00 86 1009.5
20260505093139 11 71 0.0 3.2 0.00 0.00 0.00 86 1009.6
20260505092636 11 59 3.2 4.8 0.00 0.00 0.00 85 1009.7
20260505092135 11 58 3.2 4.8 0.00 0.00 0.00 84 1009.9
20260505091631 11 30 3.2 4.8 0.00 0.00 0.00 84 1009.7
20260505091130 11 32 3.2 3.2 0.00 0.00 0.00 84 1009.8
20260505090627 11 38 3.2 4.8 0.00 0.00 0.00 82 1009.6
20260505090125 11 31 3.2 4.8 0.00 0.00 0.00 81 1009.8
20260505085622 11 13 3.2 4.8 0.00 0.00 0.00 80 1009.7
20260505085120 11 31 3.2 4.8 0.00 0.00 0.00 79 1009.6
20260505084618 11 358 3.2 3.2 0.00 0.00 0.00 79 1009.6
20260505084116 11 40 3.2 4.8 0.00 0.00 0.00 79 1009.4
20260505083613 11 25 1.6 3.2 0.00 0.00 0.00 79 1009.2
20260505083109 11 8 1.6 3.2 0.00 0.00 0.00 80 1009.3
20260505082605 11 26 3.2 4.8 0.00 0.00 0.00 80 1009.3
20260505082103 11 13 1.6 3.2 0.00 0.00 0.00 80 1009.3
20260505081559 11 25 3.2 3.2 0.00 0.00 0.00 79 1009.3
20260505081056 11 50 3.2 3.2 0.00 0.00 0.00 79 1009.2
20260505080552 11 27 3.2 4.8 0.00 0.00 0.00 78 1009.3
20260505080049 11 0 0.0 3.2 0.00 0.00 0.00 78 1009.4
20260505075544 11 50 3.2 3.2 0.00 0.00 0.00 78 1009.2
20260505075042 11 36 3.2 4.8 0.00 0.00 0.00 77 1009.2
20260505074538 11 19 3.2 3.2 0.00 0.00 0.00 77 1009.2
20260505074036 11 19 1.6 3.2 0.00 0.00 0.00 78 1009.5
20260505073533 11 26 3.2 4.8 0.00 0.00 0.00 78 1009.3
20260505073032 11 34 3.2 3.2 0.00 0.00 0.00 78 1009.4
20260505072527 11 17 1.6 3.2 0.00 0.00 0.00 78 1009.4
20260505072023 11 33 3.2 3.2 0.00 0.00 0.00 78 1009.4
20260505071519 11 18 0.0 3.2 0.00 0.00 0.00 78 1009.3
20260505071017 11 54 3.2 3.2 0.00 0.00 0.00 77 1009.3
20260505070514 11 20 1.6 3.2 0.00 0.00 0.00 77 1009.5
20260505070010 11 30 3.2 3.2 0.00 0.00 0.00 77 1009.6
20260505065506 11 18 3.2 3.2 0.00 0.00 0.00 76 1009.4
20260505065003 11 47 3.2 3.2 0.00 0.00 0.00 77 1009.4
20260505064500 11 68 3.2 4.8 0.00 0.00 0.00 77 1009.3
20260505063958 11 10 0.0 3.2 0.00 0.00 0.00 76 1009.7
20260505063455 11 41 3.2 3.2 0.00 0.00 0.00 75 1009.3
20260505062951 11 65 3.2 3.2 0.00 0.00 0.00 75 1009.4
20260505062448 11 27 3.2 3.2 0.00 0.00 0.00 74 1009.5
20260505061944 11 42 3.2 3.2 0.00 0.00 0.00 74 1009.5
20260505061443 11 16 1.6 3.2 0.00 0.00 0.00 74 1009.6
20260505060940 11 31 3.2 3.2 0.00 0.00 0.00 73 1009.6
20260505060437 11 25 3.2 4.8 0.00 0.00 0.00 73 1009.4
20260505055933 11 37 3.2 3.2 0.00 0.00 0.00 73 1009.5
20260505055429 11 37 1.6 4.8 0.00 0.00 0.00 72 1009.5
20260505054926 11 19 3.2 4.8 0.00 0.00 0.00 71 1009.6
20260505054424 11 22 3.2 4.8 0.00 0.00 0.00 69 1009.4
20260505053922 12 19 3.2 6.4 0.00 0.00 0.00 67 1009.4
20260505053418 12 38 1.6 3.2 0.00 0.00 0.00 66 1009.4
20260505052915 12 52 3.2 3.2 0.00 0.00 0.00 65 1009.5
20260505052412 12 50 4.8 4.8 0.00 0.00 0.00 65 1009.4
20260505051909 12 32 4.8 6.4 0.00 0.00 0.00 66 1009.3
20260505051407 11 33 3.2 4.8 0.00 0.00 0.00 67 1009.4
20260505050905 11 32 3.2 3.2 0.00 0.00 0.00 67 1009.4
20260505050403 11 52 3.2 4.8 0.00 0.00 0.00 68 1009.2
20260505041330 11 44 3.2 3.2 0.00 0.00 0.00 68 1009.5
20260505040827 11 54 3.2 3.2 0.00 0.00 0.00 68 1009.3
20260505040325 11 28 3.2 4.8 0.00 0.00 0.00 67 1009.3
20260505035821 12 59 1.6 3.2 0.00 0.00 0.00 67 1009.3
20260505035317 12 32 3.2 4.8 0.00 0.00 0.00 66 1009.3
20260505034815 12 36 1.6 6.4 0.00 0.00 0.00 65 1009.2
20260505034311 12 0 1.6 3.2 0.00 0.00 0.00 66 1009.0
20260505033808 12 26 3.2 4.8 0.00 0.00 0.00 64 1009.1
20260505033305 12 36 3.2 4.8 0.00 0.00 0.00 63 1009.3
20260505032804 12 41 3.2 3.2 0.00 0.00 0.00 62 1009.1
20260505032259 12 28 3.2 3.2 0.00 0.00 0.00 61 1009.2
20260505031756 12 59 3.2 4.8 0.00 0.00 0.00 61 1009.1
20260505031252 13 63 3.2 3.2 0.00 0.00 0.00 61 1009.4
20260505030750 13 40 3.2 4.8 0.00 0.00 0.00 60 1009.4
20260505030246 13 23 3.2 3.2 0.00 0.00 0.00 60 1009.3
20260505025742 13 44 3.2 4.8 0.00 0.00 0.00 60 1009.4
20260505025240 13 34 3.2 4.8 0.00 0.00 0.00 60 1009.4
20260505024738 13 26 3.2 4.8 0.00 0.00 0.00 60 1009.3
20260505024235 13 35 3.2 4.8 0.00 0.00 0.00 59 1009.3
20260505023732 13 44 3.2 4.8 0.00 0.00 0.00 58 1009.4
20260505023229 13 29 3.2 4.8 0.00 0.00 0.00 58 1009.4
20260505022727 13 60 3.2 4.8 0.00 0.00 0.00 58 1009.5
20260505022224 13 45 3.2 3.2 0.00 0.00 0.00 57 1009.3
20260505021720 14 60 3.2 4.8 0.00 0.00 0.00 57 1009.6
20260505021217 14 53 3.2 4.8 0.00 0.00 0.00 56 1009.4
20260505020713 15 45 3.2 4.8 0.00 0.00 0.00 55 1009.7
20260505020208 15 43 3.2 4.8 0.00 0.00 0.00 54 1009.4
20260505015706 15 73 3.2 3.2 0.00 0.00 0.00 54 1009.6
20260505015203 15 70 3.2 4.8 0.00 0.00 0.00 54 1009.5
20260505014700 15 64 3.2 4.8 0.00 0.00 0.00 52 1009.7
20260505014157 15 70 1.6 3.2 0.00 0.00 0.00 52 1009.6
20260505013654 15 31 3.2 3.2 0.00 0.00 0.00 50 1009.5
20260505013151 15 28 3.2 3.2 0.00 0.00 0.00 50 1009.4
20260505012649 15 48 3.2 3.2 0.00 0.00 0.00 50 1009.5
20260505012146 16 57 3.2 4.8 0.00 0.00 0.00 49 1009.4
20260505011642 16 41 4.8 4.8 0.00 0.00 0.00 48 1009.3
20260505011139 16 43 3.2 4.8 0.00 0.00 0.00 48 1009.2
20260505010639 16 40 4.8 4.8 0.00 0.00 0.00 47 1009.1
20260505010137 16 44 3.2 4.8 0.00 0.00 0.00 46 1009.2
20260505005632 16 28 3.2 3.2 0.00 0.00 0.00 46 1009.1
20260505005130 17 17 3.2 4.8 0.00 0.00 0.00 46 1009.0
20260505004627 17 17 3.2 4.8 0.00 0.00 0.00 45 1008.9
20260505004123 17 27 3.2 4.8 0.00 0.00 0.00 44 1009.0
20260505003621 17 50 3.2 3.2 0.00 0.00 0.00 43 1008.9
20260505003118 18 39 3.2 3.2 0.00 0.00 0.00 41 1008.7
20260505002614 18 5 0.0 1.6 0.00 0.00 0.00 40 1008.9
20260505002112 18 8 1.6 3.2 0.00 0.00 0.00 40 1008.8
20260505001609 18 296 0.0 3.2 0.00 0.00 0.00 39 1008.7
20260505001107 19 44 1.6 3.2 0.00 0.00 0.00 39 1008.7
20260505000603 19 17 0.0 3.2 0.00 0.00 0.00 38 1008.8
20260504235558 20 25 0.0 6.4 0.00 0.00 0.00 37 1008.8
20260504235054 20 80 3.2 3.2 0.00 0.00 0.00 37 1008.6
20260504234551 20 58 3.2 3.2 0.00 0.00 0.00 37 1008.5
20260504234049 20 226 1.6 3.2 0.00 0.00 0.00 37 1008.7
20260504233544 20 266 0.0 6.4 0.00 0.00 0.00 36 1008.5
20260504233041 20 273 1.6 9.7 0.00 0.00 0.00 35 1008.5
20260504232538 20 229 6.4 20.9 0.00 0.00 0.00 35 1008.5
20260504232036 20 114 1.6 6.4 0.00 0.00 0.00 36 1008.4
20260504231532 20 249 1.6 9.7 0.00 0.00 0.00 35 1008.4
20260504231028 20 309 3.2 6.4 0.00 0.00 0.00 35 1008.4
20260504230524 21 63 1.6 12.9 0.00 0.00 0.00 34 1008.3
20260504230024 21 174 3.2 8.0 0.00 0.00 0.00 34 1008.5
20260504225520 21 236 4.8 12.9 0.00 0.00 0.00 34 1008.4
20260504225017 21 32 1.6 6.4 0.00 0.00 0.00 35 1008.2
20260504224514 21 240 6.4 8.0 0.00 0.00 0.00 35 1008.2
20260504224011 21 224 6.4 11.3 0.00 0.00 0.00 34 1008.4
20260504223507 21 244 4.8 6.4 0.00 0.00 0.00 34 1008.2
20260504223003 21 206 3.2 17.7 0.00 0.00 0.00 34 1008.0
20260504222500 21 181 3.2 6.4 0.00 0.00 0.00 34 1008.3
20260504221958 21 28 0.0 4.8 0.00 0.00 0.00 35 1008.2
20260504221455 21 217 3.2 4.8 0.00 0.00 0.00 35 1008.5
20260504220952 21 94 3.2 9.7 0.00 0.00 0.00 34 1008.3
20260504220448 21 269 3.2 6.4 0.00 0.00 0.00 34 1008.5
20260504215945 21 107 0.0 8.0 0.00 0.00 0.00 34 1008.4
20260504215442 22 63 3.2 6.4 0.00 0.00 0.00 35 1008.4
20260504214939 22 225 3.2 6.4 0.00 0.00 0.00 35 1008.3
20260504214435 22 244 4.8 8.0 0.00 0.00 0.00 33 1008.3
20260504213932 22 31 0.0 12.9 0.00 0.00 0.00 34 1008.2
20260504213427 22 285 4.8 9.7 0.00 0.00 0.00 33 1008.2
20260504212925 22 254 9.7 9.7 0.00 0.00 0.00 33 1008.3
20260504212421 22 268 3.2 4.8 0.00 0.00 0.00 34 1008.4
20260504211919 22 249 3.2 8.0 0.00 0.00 0.00 34 1008.2
20260504211415 22 274 6.4 14.5 0.00 0.00 0.00 31 1008.2
20260504210912 23 297 8.0 8.0 0.00 0.00 0.00 31 1008.4
20260504210409 22 253 4.8 6.4 0.00 0.00 0.00 32 1008.3
20260504205906 22 206 9.7 9.7 0.00 0.00 0.00 31 1008.5
20260504205404 22 38 3.2 6.4 0.00 0.00 0.00 33 1008.4
20260504204902 22 103 8.0 8.0 0.00 0.00 0.00 31 1008.4
20260504204400 22 259 6.4 11.3 0.00 0.00 0.00 31 1008.6
20260504203900 22 239 8.0 9.7 0.00 0.00 0.00 30 1008.6
20260504203356 22 278 6.4 12.9 0.00 0.00 0.00 31 1008.6
20260504202852 21 99 3.2 9.7 0.00 0.00 0.00 32 1008.6
20260504202349 21 292 4.8 6.4 0.00 0.00 0.00 33 1008.7
20260504201845 21 250 9.7 9.7 0.00 0.00 0.00 33 1008.8